Prescott, AZ

5:42 PM MST on November 13, 2019 (GMT -0700)
Love

Weather History for KPRC - September, 2019

Change the Weather History Date:

Monday, September 2, 2019

  Actual Average Record
Temperature  
Mean Temperature 77 °F 72 °F  
Max Temperature 91 °F 85 °F 99 °F (1948)
Min Temperature 63 °F 58 °F 44 °F (1973)
Degree Days  
Heating Degree Days 0    
Month to date heating degree days 0  
Since 1 July heating degree days 0  
Cooling Degree Days 12    
Month to date cooling degree days 28  
Year to date cooling degree days 1003  
Growing Degree Days 27 (Base 50)    
Moisture  
Dew Point 52 °F    
Average Humidity 44    
Maximum Humidity 80    
Minimum Humidity 22    
Precipitation  
Precipitation 0.00 in 0.06 in 0.68 in (1965)
Month to date precipitation 0.08 0.13  
Year to date precipitation 8.19 9.79  
Sea Level Pressure  
Sea Level Pressure 29.99 in    
Wind  
Wind Speed 6 mph ()    
Max Wind Speed 18 mph    
Max Gust Speed 25 mph    
Visibility 10.0 miles    
Events Thunderstorm    
T = Trace of Precipitation, MM = Missing Value Source: Averaged Metar Reports

Daily Weather History Graph

Daily Weather History Graph

Search for Another Location

Airport or City:

Astronomy

Sep. 02, 2019 Rise Set
Actual Time 6:03 AM MST 6:54 PM MST
Civil Twilight 5:37 AM MST 7:20 PM MST
Nautical Twilight 5:07 AM MST 7:50 PM MST
Astronomical Twilight 4:35 AM MST 8:21 PM MST
Moon 9:41 AM MST (9/2) 9:28 PM MST (9/2)
Length of Visible Light 13h 42m
Length of Day
12h 51m
Waxing Crescent, 16% of the Moon is Illuminated
Sep 2
Waxing Crescent
Sep 5
First Quarter
Sep 13
Full
Sep 21
Last Quarter
Sep 28
New

Hourly Weather History & Observations

Time (MST) Temp. Heat Index Dew Point Humidity Pressure Visibility Wind Dir Wind Speed Gust Speed Precip Events Conditions
12:53 AM 71.1 °F - 55.0 °F 57% 30.01 in 10.0 mi SE 5.8 mph - N/A   Scattered Clouds
1:53 AM 70.0 °F - 57.9 °F 65% 29.99 in 10.0 mi WSW 8.1 mph - N/A   Scattered Clouds
2:53 AM 68.0 °F - 59.0 °F 73% 29.99 in 10.0 mi NW 6.9 mph - N/A   Mostly Cloudy
3:53 AM 68.0 °F - 57.0 °F 68% 29.97 in 10.0 mi Calm Calm - N/A   Clear
4:53 AM 64.9 °F - 57.9 °F 78% 29.98 in 10.0 mi WSW 3.5 mph - N/A   Clear
5:53 AM 64.0 °F - 57.9 °F 80% 30.01 in 10.0 mi South 6.9 mph - N/A   Clear
6:53 AM 64.9 °F - 57.0 °F 75% 30.04 in 10.0 mi SSW 6.9 mph - N/A   Clear
7:53 AM 72.0 °F - 57.0 °F 59% 30.02 in 10.0 mi South 6.9 mph - N/A   Clear
8:53 AM 77.0 °F - 55.0 °F 47% 30.01 in 10.0 mi Calm Calm - N/A   Clear
9:53 AM 82.0 °F 81.3 °F 54.0 °F 38% 30.00 in 10.0 mi NNE 3.5 mph - N/A   Clear
10:53 AM 84.9 °F 83.2 °F 53.1 °F 33% 29.97 in 10.0 mi NNE 6.9 mph - N/A   Scattered Clouds
11:53 AM 87.1 °F - 52.0 °F 30% 29.96 in 10.0 mi Calm Calm - N/A   Scattered Clouds
12:53 PM 89.1 °F - 51.1 °F 27% 29.93 in 10.0 mi SSW 4.6 mph - N/A   Scattered Clouds
1:53 PM 84.0 °F - 46.9 °F 27% 29.94 in 10.0 mi WSW 11.5 mph - N/A   Mostly Cloudy
2:53 PM 88.0 °F - 48.0 °F 25% 29.91 in 10.0 mi WSW 8.1 mph - N/A   Clear
3:34 PM 88.0 °F - 48.0 °F 25% 30.16 in 10.0 mi West 12.7 mph - N/A Thunderstorm Partly Cloudy
3:50 PM 89.6 °F - 48.2 °F 24% 30.16 in 10.0 mi WNW 10.4 mph - N/A   Partly Cloudy
3:53 PM 90.0 °F - 46.9 °F 23% 29.88 in 10.0 mi NW 6.9 mph - N/A   Partly Cloudy
4:10 PM 90.0 °F - 48.0 °F 24% 30.15 in 10.0 mi SSW 12.7 mph - N/A Thunderstorm Thunderstorm
4:29 PM 90.0 °F - 46.0 °F 22% 30.16 in 10.0 mi SSW 9.2 mph - N/A Thunderstorm Clear
4:53 PM 84.9 °F - 48.9 °F 29% 29.91 in 10.0 mi NE 15.0 mph 25.3 mph N/A   Partly Cloudy
5:53 PM 86.0 °F - 45.0 °F 24% 29.90 in 10.0 mi NE 10.4 mph - N/A   Partly Cloudy
6:53 PM 79.0 °F - 53.1 °F 40% 29.95 in 10.0 mi NE 9.2 mph - N/A   Scattered Clouds
7:53 PM 75.9 °F - 53.1 °F 45% 29.95 in 10.0 mi West 3.5 mph - N/A   Clear
8:53 PM 72.0 °F - 53.1 °F 51% 29.96 in 10.0 mi SSW 4.6 mph - N/A   Clear
9:53 PM 71.1 °F - 52.0 °F 51% 29.95 in 10.0 mi South 8.1 mph - N/A   Clear
10:53 PM 71.1 °F - 52.0 °F 51% 29.94 in 10.0 mi South 8.1 mph - N/A   Clear
11:53 PM 69.1 °F - 52.0 °F 54% 29.94 in 10.0 mi North 3.5 mph - N/A   Clear